Location: Campo Alegre
(10.4289°N, 66.6519°W)
Time: 23:44:34
(UTC+00:00)

ATLAS 5 CENTAUR R/B - Pass Details

Date: 29 May 2024
Orbit: 418 x 1168 km, 63.3° (Epoch: 21 June)

Event Time Altitude Azimuth Distance (km) Brightness Sun altitude
Rises 23:21:43 0° 319° (NW) 3,547 6.8 -9.2°
Reaches altitude 10° 23:24:18 10° 310° (NW) 2,711 6.3 -9.8°
Maximum altitude 23:30:09 35° 247° (WSW) 1,654 4.1 -11.1°
Drops below altitude 10° 23:36:42 10° 184° (S) 3,039 4.9 -12.5°
Sets 23:39:48 0° 175° (S) 4,030 5.4 -13.2°
